Other Public Products
Issued by NWS Grand Forks, ND

Home | Current Version | Previous Version | Graphics & Text | Print | Product List | Glossary On
Versions: 1 2 3 4 5 6 7 8 9 10 11 12 13 14 15 16 17 18 19 20 21 22 23 24 25 26 27 28 29 30 31 32 33 34 35 36 37 38 39 40 41 42 43 44 45 46 47 48 49 50
000
FPUS83 KFGF 041731
OPUFGF
PRAIRIE TO PINES WEATHER ROUNDUP
NATIONAL WEATHER SERVICE EASTERN NORTH DAKOTA/GRAND FORKS ND
1200 PM CDT TUE AUG 04 2015

 **SATELLITE DATA USED TO AUGMENT SKY COVER AT AUTOMATED STATIONS**
 *****  WEATHER ACROSS EASTERN NORTH DAKOTA  *****

CITY           SKY/WX    TMP DP  RH WIND       PRES   REMARKS
GRAND FORKS    MOSUNNY   72  54  53 N5        30.03S
GRAND FORKS AF SUNNY     70  54  57 N6        30.03F
GRAND CITY NWS   N/A     70 N/A N/A VRB6        N/A
BUXTON         NOT AVBL
DEVILS LAKE    SUNNY     73  52  46 S8        30.02F
FARGO          SUNNY     75  48  38 N7        30.01F
WAHPETON ARPT  SUNNY     77  43  29 NW5       30.00F
$$

 *****  WEATHER ACROSS CENTRAL AND WESTERN NORTH DAKOTA  *****

CITY           SKY/WX    TMP DP  RH WIND       PRES   REMARKS
JAMESTOWN      SUNNY     75  52  44 E5        30.01F
BISMARCK       SUNNY     80  56  43 SE10      29.99F
MINOT          SUNNY     78  49  35 SE8       30.00S
MINOT AFB      SUNNY     78  50  37 S9        29.99S
GARRISON         N/A     75  54  47 E12       29.99F
WILLISTON      SUNNY     82  48  30 SE13G22   29.94F
DICKINSON      SUNNY     78  59  51 SE12      29.97F
HETTINGER      SUNNY     76  58  53 SE10      29.99F
$$

 *****  OTHER OBSERVATIONS NORTHEAST NORTH DAKOTA  *****

CITY           SKY/WX    TMP DP  RH WIND       PRES   REMARKS
WALHALLA       FAIR      66  54  63 MISG      30.04F
LANGDON        FAIR      72  52  49 N5G12     30.06S
CAVALIER       FAIR      68  52  56 NE9       30.04F
GRAFTON        FAIR      70  54  56 NE8       30.04F
CANDO          FAIR      72  52  49 SE7       30.04F
FORT TOTTEN      N/A     74  54  49 SE5       29.95S
ROLLA            N/A     68  52  56 SE3       30.06S
RUGBY          NOT AVBL
 ***** THE ABOVE OBSERVATIONS ARE NON NWS ARE NOT QUALITY
        CONTROLLED AND MAY MIS-REPORT RAIN FOR SNOW...
$$

 *****  OTHER OBSERVATIONS SOUTHEAST NORTH DAKOTA *****

CITY           SKY/WX    TMP DP  RH WIND       PRES   REMARKS
COOPERSTOWN    NOT AVBL
VALLEY CITY    FAIR      75  54  46 NE6       30.02F
OAKES            N/A     77  52  41 NE8       30.00F
GWINNER        FAIR      79  52  38 CALM      30.01F
SHEYENNE NWR     N/A     78  52  39 NW2       29.95S
BUFFALO        NOT AVBL
WYNDMERE         N/A     77  50  38 NW3         N/A
 ***** THE ABOVE OBSERVATIONS ARE NON NWS ARE NOT QUALITY
       CONTROLLED AND MAY MIS-REPORT RAIN FOR SNOW...
$$

  *****  WEATHER ACROSS NORTHERN MINNESOTA  *****

CITY           SKY/WX    TMP DP  RH WIND       PRES   REMARKS
FLAG ISLAND    MOSUNNY   61  48  63 NE5       30.03S
WARROAD        MOSUNNY   63  54  72 E7        30.04S
ROSEAU         MOSUNNY   66  55  68 N6        30.03S
HALLOCK        SUNNY     68  52  56 N6        30.02F
THF RVR FALLS  PTSUNNY   68  52  56 NW10      30.03S
HALSTAD        NOT AVBL
FOSSTON        MOSUNNY   72  52  49 NW8       30.03F
BAUDETTE       CLOUDY    63  50  62 NW8       30.03R
WASKISH        CLOUDY    68  55  64 NW7       30.02R
CROOKSTON      SUNNY     72  54  53 NW9       30.03S
$$
  *****  WEATHER ACROSS CENTRAL AND WEST MINNESOTA  *****

CITY           SKY/WX    TMP DP  RH WIND       PRES   REMARKS
BEMIDJI        PTSUNNY   69  52  54 N10       30.02S
PARK RAPIDS    SUNNY     73  51  46 NW9       30.01F
WADENA         SUNNY     75  48  38 NW13      30.00F
DETROIT LAKES  SUNNY     73  48  40 N7        30.03F
MOORHEAD       SUNNY     73  54  49 N7        30.02F
FERGUS FALLS   SUNNY     75  52  43 NW10      30.00S
ELBOW LAKE     FAIR      74  52  47 NW8       30.01S
MORRIS MN      SUNNY     79  54  41 W7        30.00S
STAPLES        SUNNY     75  46  35 W12       30.00F
WHEATON        SUNNY     75  52  43 NW6       30.01F
$$
  *****  WEATHER ELSEWHERE ACROSS MINNESOTA  *****

CITY           SKY/WX    TMP DP  RH WIND       PRES   REMARKS
DULUTH         CLOUDY    68  52  56 NW10      29.99R
INTRNTL FALLS  CLOUDY    58  49  72 N9        30.03R
ELY            CLOUDY    61  48  63 NW6       30.00S
CLOQUET        MOSUNNY   72  48  43 NW10G18   29.98F
BRAINERD       SUNNY     73  50  44 NW10      30.00F
HIBBING        CLOUDY    67  52  58 NW9       30.00R
ALEXANDRIA     SUNNY     76  52  43 NW10      30.03F
SAINT CLOUD    SUNNY     77  52  41 W13       29.99F
MINNEAPOLIS    MOSUNNY   77  50  38 W10       30.00F
$$

  *****  WEATHER ACROSS SOUTH DAKOTA  *****

CITY           SKY/WX    TMP DP  RH WIND       PRES   REMARKS
SIOUX FALLS    CLOUDY    75  61  61 E15       29.98F
BROOKINGS      PTSUNNY   73  57  56 SE12      30.01F
WATERTOWN      MOSUNNY   76  55  48 VRB7      30.00F
HURON          PTSUNNY   77  63  61 SE5       29.96R
SISSETON         N/A     79  50  36 E7        29.99S
ABERDEEN       MOSUNNY   79  58  48 E10       29.99R
MITCHELL       CLOUDY    76  66  71 SE8       29.97R
PIERRE         PTSUNNY   78  61  55 E9        29.94F
MOBRIDGE       MOSUNNY   81  63  54 S10       29.95S
RAPID CITY     PTSUNNY   73  64  73 S13       29.97F
$$

  *****  SOME WEATHER IN NEARBY STATES *****

CITY           SKY/WX    TMP DP  RH WIND       PRES   REMARKS
GLASGOW MT     SUNNY     79  54  41 E18       29.86F
GREAT FALLS MT CLOUDY    79  41  25 W9        29.93R
CHEYENNE WY    CLOUDY    66  51  58 NW9       30.13F
SCOTTSBLUFF NE MOSUNNY   73  57  57 SE10      30.01S
OMAHA NE       CLOUDY    70  63  78 CALM      29.98F
DES MOINES IA  CLOUDY    73  59  61 CALM      30.05R
DAVENPORT IA   PTSUNNY   78  59  51 W8        30.02S
CHICAGO IL     PTSUNNY   79  50  36 W12       29.97S
EAU CLAIRE WI  MOSUNNY   75  54  47 NW13      29.99F
LA CROSSE WI   MOSUNNY   77  53  43 N6        30.00F
$$

  *****  SOME NATIONAL WEATHER *****

CITY           SKY/WX    TMP DP  RH WIND       PRES   REMARKS
LA GUARDIA NY  MOSUNNY   88  63  43 W9G20     29.84F
RALEIGH NC     MOSUNNY   92  72  51 VRB6      29.99F HX  99
ATLANTA GA     MOSUNNY   91  64  40 VRB3      30.03F HX  92
NEW ORLEANS LA PTSUNNY   86  74  67 S13       29.99F HX  94
OKLAHOMA CITY  PTSUNNY   79  71  76 S15       29.98S
ALBUQUERQUE NM MOSUNNY   81  45  28 CALM      30.21F
SALT LAKE CITY MOSUNNY   74  55  51 NE3       30.11F
LOS ANGELES CA PTSUNNY   76  63  64 SW3       29.93R
BOISE ID       SUNNY     78  51  38 CALM      30.01F
SEATTLE WA     CLOUDY    63  54  72 S6        30.03S
$$

*** WEATHER ACROSS MANITOBA...SASKATCHEWAN AND ONTARIO ***
                ***ONTARIO***

CITY           SKY/WX    TMP DP  RH WIND       PRES   REMARKS
GERALDTON      DRIZZLE   55  52  88 N14       29.89R
THUNDER BAY    CLOUDY    61  50  67 NW7       29.96R
SIOUX LOOKOUT  CLOUDY    57  50  77 N5        30.02R
TORONTO        PTSUNNY   75  55  50 W8G18     29.87F
BIG TROUT LK   CLOUDY    57  50  77 NW10      29.96S
PICKLE LAKE    PTSUNNY   59  48  67 N5        29.98S
DRYDEN         CLOUDY    59  50  72 W6        30.03R
KENORA         PTSUNNY   61  52  72 CALM      30.05R
$$
                *** MANITOBA***

CITY           SKY/WX    TMP DP  RH WIND       PRES   REMARKS
BRANDON        MOSUNNY   70  54  56 E5        30.04F
DAUPHIN        SUNNY     68  55  64 E7        30.05S
ISLAND LAKE    CLOUDY    57  54  88 W9        30.02S
PILOT MOUND      N/A     68  52  56 E6          N/A
THE PAS        PTSUNNY   68  52  56 N6        30.04S
THOMPSON       CLOUDY    59  50  72 N8        30.04
WINNIPEG       PTSUNNY   64  54  68 NE8       30.05F
LYNN LAKE      CLOUDY    59  54  82 NE6       30.06S
CHURCHILL      CLOUDY    48  45  87 N7        30.07R
GILLAM         CLOUDY    54  50  87 N5        30.01S
$$
                ***SASKATCHEWAN***

CITY           SKY/WX    TMP DP  RH WIND       PRES   REMARKS
ESTEVAN        PTSUNNY   77  52  41 SE13G21   29.98F
KINDERSLEY     CLOUDY    72  55  56 SE16G22   29.81R
LLOYDMINSTER   CLOUDY    64  57  77 E17G23    29.87S
PRINCE ALBERT  CLOUDY    66  59  77 E7        29.97F
REGINA         PTSUNNY   75  54  46 SE17      29.95F



USA.gov is the U.S. government's official web portal to all federal, state and local government web resources and services.